Flag for United Arab Emirates Weather past 2 weeks in Abu Dhabi, Abu Dhabi, United Arab Emirates

Now
88 °F

Passing clouds.


Feels Like: 85 °F
Forecast: 65 / 77 °F
Wind: 5 mph from Southwest

Location: Abu Dhabi Bateen Airport

Current Time: Jan 31, 2015 at 4:25:38 PM

Latest Report: Jan 31, 2015 at 4:00 PM


Visibility: N/A

Pressure: 29.98 "Hg

Humidity: 24%

Dew point: 46 °F

Location of Abu DhabiLocation

Historic Weather in Abu Dhabi — Graph

°F

Abu Dhabi temperature yesterday

Maximum temperature yesterday: 88 °F (at 3:00 PM)
Minimum temperature yesterday: 61 °F (at 7:00 AM)
Average temperature yesterday: 74 °F

Past Weeks' High & Low Weather Summary

 TemperatureHumidityPressure
High88 °F (Jan 30, 3:00 PM)94% (Jan 17, 4:00 AM)30.24 "Hg (Jan 17, 4:00 AM)
Low57 °F (Jan 23, 4:00 AM)13% (Jan 30, 4:00 PM)29.56 "Hg (Jan 29, 5:00 AM)
Average68 °F63%30.09 "Hg
* Reported Jan 16 3:00 PM — Jan 31 3:00 PM, Abu Dhabi, Weather by CustomWeather, © 2014

Note: Actual official high and low records may vary slightly from our data, if they occured in-between our weather recording intervals... More about our weather records

Advertising

Abu Dhabi weather history for previous 24 hours

 ConditionsComfort  
Time TempWeatherWind HumidityBarometerVisibility
3:00 PM
Jan 31
88 °FPassing clouds.5 mph24%30.01 "HgN/A
2:00 PM88 °FPassing clouds.6 mph22%30.01 "HgN/A
1:00 PM84 °FPassing clouds.7 mph27%30.07 "HgN/A
12:00 PM82 °FPassing clouds.7 mph32%30.09 "HgN/A
11:00 AM79 °FPassing clouds.7 mph37%30.12 "HgN/A
10:00 AM75 °FPassing clouds.6 mph39%30.12 "HgN/A
9:00 AM70 °FPassing clouds.6 mph43%30.09 "HgN/A
8:00 AM64 °FSunny.3 mph52%30.09 "Hg10 mi
7:00 AM63 °FClear.3 mph56%30.07 "Hg10 mi
6:00 AM64 °FClear.6 mph52%30.04 "Hg10 mi
5:00 AM66 °FClear.5 mph49%30.04 "Hg10 mi
4:00 AM68 °FClear.6 mph46%30.04 "Hg10 mi
3:00 AM66 °FClear.6 mph52%30.04 "Hg10 mi
2:00 AM68 °FClear.5 mph49%30.07 "Hg10 mi
1:00 AM70 °FClear.7 mph46%30.07 "Hg10 mi
12:00 AM70 °FClear.5 mph46%30.07 "Hg10 mi
11:00 PM
Jan 30
72 °FClear.8 mph47%30.09 "Hg10 mi
10:00 PM73 °FPassing clouds.6 mph44%30.09 "HgN/A
9:00 PM73 °FPassing clouds.3 mph50%30.07 "HgN/A
8:00 PM73 °FPassing clouds.5 mph61%30.07 "HgN/A
7:00 PM77 °FClear.5 mph51%30.07 "Hg10 mi
6:00 PM86 °FPassing clouds.3 mph15%30.04 "HgN/A
5:00 PM88 °FPassing clouds.5 mph13%30.04 "HgN/A
4:00 PM88 °FPassing clouds.7 mph13%30.04 "HgN/A
Weather by CustomWeather, © 2014

See weather overviewHow to use our weather pages